Terminal Aerodrome Forecast
Issued by NWS

Home | Current Version | Previous Version | Graphics & Text | Print | Product List | Glossary Off
Versions: 1 2 3 4 5 6 7 8 9 10 11 12 13 14 15 16 17 18 19 20 21 22 23 24 25 26 27 28 29 30 31 32

000
FTUS43 KDDC 281358 AAA
TAFHYS
TAF AMD
KHYS 281358Z 2814/0112 16008KT 2SM -SN BR BKN025
      TEMPO 2814/2815 1SM -SN BR BKN015
     FM281600 17010KT P6SM -SN OVC022
     FM010000 13007KT 4SM BR OVC012=

USA.gov is the U.S. government's official web portal to all federal, state and local government web resources and services.